SCP
0 0 0 0 0 0 0 0 0 0 -0 -0 -0 -0 -0 -0 -0 0 0 0 0 0 0 0 0 0 0 0 0 0 0 0 0 0 0 0 0 0 0 0 0 0 0 0 0 0 0 0 0 0 0 0 0 0
0 0 0 0 -0 0 0 0 0 0 0 -0 -0 -0 -0 -0 -0 -0 0 0 0 0 0 0 0 0 0 0 0 0 0 0 0 0 0 0 0 0 0 0 0 0 0 0 0 0 0 0 0 0 0 0 0 0
0 0 0 0 0 0 0 0 0 0 0 0 0 -0 -0 -0 -0 0 0 0 0 0 0 0 0 0 0 0 0 0 0 0 0 0 0 0 0 0 0 0 0 0 0 0 0 0 0 0 0 0 0 0 0 0
0 0 0 0 0 0 0 0 0 0 0 0 0 0 -0 -0 -0 0 0 0 0 0 0 0 0 0 0 0 0 0 0 0 0 0 0 0 0 0 0 0 0 0 0 0 0 0 0 0 0 0 0 0 0 0
0 0 0 0 0 0 0 0 0 0 0 0 0 0 0 0 -0 0 -0 0 0 0 0 0 0 0 -0 0 0 0 0 0 0 0 0 0 0 0 0 0 0 0 0 0 0 0 0 -0 0 0 0 0 0 0
0 0 0 0 0 0 0 0 0 0 0 0 0 0 0 0 0 0 -0 0 0 0 0 0 0 0 0 0 0 0 0 0 0 0 0 0 0 0 0 0 0 0 0 0 0 0 0 0 0 0 0 0 0 0
0 0 0 0 0 0 0 0 0 0 0 0 0 0 0 0 0 0 0 0 0 0 0 0 0 0 0 -0 0 -0 0 0 0 0 0 0 0 0 0 0 0 0 0 0 0 0 0 0 0 0 0 0 0 0
0 0 0 0 0 0 0 0 0 0 0 0 0 0 0 0 0 0 0 -0 0 0 0 0 0 0 0 0 0 0 0 0 0 0 0 0 0 0 0 0 0 0 0 0 0 0 0 0 0 0 0 0 0 0
0 0 0 0 0 0 0 0 0 0 0 0 0 0 0 0 0 0 0 0 0 0 0 0 0 0 0 0 0 0 0 0 0 0 0 0 0 0 0 0 0 0 0 0 0 0 0 0 0 0 0 0 0 0
0 0 0 0 0 0 0 0 0 0 0 0 0 0 0 0 0 0 0 0 0 0 0 0 0 0 0 0 0 0 0 0 0 0 0 0 0 0 0 0 0 0 0 0 0 0 0 0 0 0 0 0 0 -0
0 0 0 0 0 0 0 0 0 0 0 0 0 0 0 0 0 0 0 0 0 0 0 0 0 0 0 0 0 0 0 0 0 0 0 0 0 0 0 0 0 0 0 0 0 0 0 0 0 0 0 0 0 0
0 0 0 0 0 0 0 0 0 0 0 0 0 0 0 0 0 0 0 0 0 0 0 0 0 0 0 0 0 0 0 0 0 0 0 0 0 0 0 -0 0 0 0 0 0 0 0 0 0 0 0 0 0 0
0 0 0 0 0 0 0 0 0 0 0 0 0 0 0 0 0 0 0 0 0 0 0 0 0 0 0 0 0 0 0 0 0 0 0 0 0 -0 -0 -0 0 0 0 0 0 0 0 0 0 0 0 0 0 0
0 0 0 0 0 0 0 0 0 0 0 0 0 0 0 0 0 0 0 0 0 0 0 0 0 0 0 0 0 0 0 0 0 0 0 0 -0 -0 -0 0 0 0 0 0 0 0 0 0 0 0 0 0 0 0
0 0 0 0 0 0 0 0 0 0 0 0 0 0 0 0 0 0 0 0 0 0 0 0 0 0 0 0 0 0 0 0 0 0 0 -0 0 0 0 0 0 0 0 0 0 0 0 0 -0 -0 -0 0 0 0
0 0 0 0 0 0 0 0 0 0 0 0 0 0 0 0 0 0 0 0 0 0 0 0 0 0 0 0 0 0 0 0 0 0 0 0 0 -0 0 0 0 -0 -0 0 0 0 0 0 -0 0 -0 -0 0 0
0 0 0 0 0 0 0 0 0 0 0 0 0 0 0 0 0 0 0 0 0 0 0 0 0 0 0 0 0 0 0 0 -0 -0 0 0 -0 -0 0 0 0 0 -0 0 0 0 0 0 0 0 0 0 0 0
0 0 0 0 0 0 0 0 0 0 0 0 0 0 0 0 0 0 0 0 0 0 0 0 0 0 0 0 0 0 0 0 0 0 0 -0 0 0 0 0 0 0 0 0 0 0 0 0 0 0 0 0 0 0
0 0 0 0 0 0 0 0 0 0 0 0 0 0 0 0 0 0 0 0 0 0 0 0 0 0 0 0 0 0 0 0 0 -0 -0 0 -0 0 0 -0 0 -0 0 0 0 0 0 0 -0 0 0 -0 -0 0
0 0 0 0 0 0 0 0 0 0 0 0 0 0 0 0 0 0 0 0 0 0 0 0 0 -0 0 0 0 0 0 0 -0 -0 -0 -0 -0 0 0 0 0 0 -0 0 0 0 0 0 0 0 0 0 0 0
0 0 0 0 0 0 0 0 0 0 0 0 0 0 0 0 0 0 0 0 0 0 0 0 0 0 0 0 0 0 0 0 0 0 -0 0 0 0 0 0 -0 0 -0 -0 0 0 0 0 0 0 0 0 0 -0
0 0 0 0 0 0 0 0 0 0 0 0 0 0 0 0 0 0 0 0 0 0 0 0 0 0 0 0 0 0 0 0 -0 -0 -0 -0 0 0 0 0 0 -0 -0 -0 0 0 0 0 0 0 0 0 0 0
0 0 0 0 0 0 0 0 0 0 0 0 0 0 0 0 0 0 0 0 0 0 0 0 0 0 0 0 -0 0 0 0 0 0 -0 -0 -0 0 0 -0 -0 -0 -0 -0 0 0 0 0 0 0 0 0 0 0
0 0 0 0 0 0 0 0 0 0 0 0 0 0 0 0 0 0 0 0 0 0 0 0 0 0 0 0 0 0 0 0 0 -0 -0 -0 -0 0 -0 -0 -0 -0 -0 0 0 0 0 0 0 0 0 -0 -0 -0
0 0 0 0 0 0 0 0 0 0 0 0 0 0 0 0 0 0 0 0 0 0 0 0 0 0 0 0 0 0 0 0 -0 0 -0 -0 -0 -0 0 0 -0 0 -0 -0 0 0 0 -0 -0 -0 -0 -0 -0 -0
0 0 0 0 0 0 0 0 0 0 0 0 0 0 0 0 0 0 0 0 0 0 0 0 0 0 0 0 0 0 0 0 0 -0 -0 -0 0 -0 0 -0 -0 -0 -0 -0 -0 -0 -0 -0 -0 -0 -0 -0 -0 -0
0 0 0 0 0 0 0 0 0 0 0 0 0 0 0 0 0 0 0 0 0 0 0 0 0 -0 -0 0 0 -0 0 0 0 -0 -0 0 0 0 0 -0 0 0 0 0 -0 -0 -0 -0 -0 -0 -0 -0 -0 -0
0 0 0 0 0 0 0 0 0 0 0 0 0 0 0 0 0 0 0 0 0 0 0 0 0 0 0 0 0 0 0 -0 0 0 -0 -0 -0 0 0 0 -0 -0 -0 -0 -0 -0 -0 -0 -0 0 0 0 -0 0
0 0 0 0 0 0 0 0 0 0 0 0 0 0 0 0 0 0 -0 0 0 0 0 0 0 0 0 0 0 0 0 0 0 0 -0 -0 0 0 0 -0 -0 -0 -0 -0 -0 -0 -0 -0 0 0 0 0 0 0
0 0 0 0 0 0 0 0 0 0 0 0 0 0 0 0 0 0 0 0 0 0 0 0 -0 0 0 0 0 0 0 0 0 0 0 0 0 0 -0 0 0 0 -0 -0 -0 -0 0 0 0 0 0 0 0 0
0 0 0 0 0 0 0 0 0 0 0 0 0 0 0 0 -0 -0 -0 -0 0 0 0 0 0 0 0 0 0 -0 0 0 0 0 -0 -0 -0 -0 -0 -0 0 0 0 0 0 0 0 0 0 0 0 -0 -0 0
0 0 0 0 0 0 0 0 0 0 0 0 0 0 0 0 0 0 0 0 0 0 0 0 0 0 0 0 0 0 0 0 0 0 -0 0 -0 -0 -0 -0 0 0 0 0 0 0 0 0 0 0 0 0 0 0
0 0 0 0 0 0 0 0 0 0 0 0 0 0 0 0 0 0 0 0 0 0 0 0 0 0 0 0 0 0 0 0 0 0 0 0 -0 -0 -0 0 0 0 0 0 0 0 0 0 0 0 0 0 0 0
Wind_Speed_500mb
32 28 29 31 33 32 30 27 27 28 30 30 24 21 23 26 22 18 21 34 23 9 16 16 16 17 21 25 8 29 15 13 11 6 4 6 6 7 9 12 11 6 4 7 6 7 5 14 15 9 10 15 28 34
37 35 33 35 38 32 28 26 24 24 25 25 22 19 20 24 23 17 12 16 17 10 9 11 8 8 2 8 16 20 16 12 13 7 9 8 7 7 12 7 14 7 3 4 2 2 21 38 26 24 25 27 33 39
39 36 34 32 35 30 25 23 22 21 22 20 18 18 18 20 21 18 21 38 31 9 27 16 13 5 4 5 4 8 11 15 11 13 7 5 4 5 6 9 9 6 29 7 11 15 33 38 35 39 39 37 43 54
39 37 33 33 32 29 23 21 21 21 19 17 14 16 16 18 19 16 12 24 27 8 9 10 3 6 5 3 6 6 10 9 13 13 14 5 6 16 8 9 6 4 11 9 8 11 38 10 51 52 57 59 61 61
39 37 36 34 30 28 23 20 20 20 18 15 14 15 15 19 17 12 16 14 20 13 9 13 8 5 8 3 5 6 7 9 12 13 7 7 20 9 11 6 7 14 5 4 6 26 22 46 61 64 58 58 52 51
43 39 41 36 32 27 24 19 20 18 18 14 12 15 14 15 12 5 9 9 14 28 4 6 6 9 6 8 6 7 6 9 11 9 17 16 8 9 5 4 4 5 8 16 16 41 50 58 62 55 53 60 70 66
39 45 45 45 35 29 26 21 19 17 14 14 12 12 13 14 13 1 1 4 24 11 3 10 5 12 11 13 18 18 23 12 14 9 7 14 9 15 4 8 12 7 23 29 42 37 44 53 62 76 69 73 64 67
37 38 40 39 38 33 28 23 19 16 13 12 12 10 12 15 2 5 4 12 29 2 5 6 4 13 10 11 13 22 3 5 9 2 6 6 14 4 6 1 2 12 26 43 44 45 54 63 72 72 65 59 63 67
35 33 31 36 36 32 28 23 18 14 11 9 9 9 6 5 4 8 17 27 6 7 7 8 5 4 4 10 10 6 5 3 0 4 5 3 4 7 9 12 15 20 29 49 63 61 66 64 67 67 65 63 63 65
31 30 30 32 38 32 27 22 16 10 7 4 1 7 2 5 7 22 3 3 2 5 6 10 14 3 11 18 9 9 5 4 5 4 6 3 8 37 40 25 25 40 59 64 58 60 65 71 83 81 69 66 71 71
29 29 30 29 31 34 29 22 16 9 8 7 5 1 6 18 5 3 7 12 14 11 13 10 7 5 9 8 5 11 4 5 4 1 2 5 0 11 16 23 32 43 48 57 61 60 65 60 74 78 76 73 68 71
23 27 29 30 31 34 30 24 19 20 12 10 5 5 3 5 6 8 6 8 7 6 9 4 13 10 6 8 6 7 3 3 6 2 4 5 2 12 21 30 38 49 57 59 65 66 70 62 59 65 72 73 71 61
22 25 29 30 34 36 30 26 20 22 15 7 3 4 6 7 4 8 9 6 6 17 12 14 12 4 5 4 1 1 5 5 1 3 5 1 8 23 29 39 50 54 65 69 67 62 58 63 68 68 63 57 56 51
21 23 28 36 38 33 33 28 23 24 14 5 9 6 7 9 9 10 10 6 11 18 22 22 20 12 7 6 4 3 5 4 4 5 5 4 12 24 38 45 50 70 66 62 60 56 60 58 69 69 60 49 48 52
20 20 32 37 43 34 36 31 26 33 10 7 9 6 13 25 31 3 14 8 4 10 9 3 6 11 4 4 2 3 5 7 5 5 4 34 15 35 47 54 60 66 56 58 59 59 55 65 73 82 68 46 40 38
15 25 37 42 35 40 38 32 29 25 5 7 10 9 20 15 12 21 14 16 12 7 16 11 4 2 2 5 5 6 4 6 3 6 15 15 27 47 53 54 60 66 54 56 54 52 60 70 74 65 56 44 37 30
21 20 35 35 39 43 38 30 24 13 8 8 14 26 33 21 17 13 11 14 6 7 5 2 3 4 2 3 4 5 5 8 36 19 20 28 41 47 42 53 62 55 51 50 52 42 61 70 67 55 49 45 36 27
25 25 30 32 47 46 40 17 14 9 8 16 15 19 6 2 8 2 10 4 1 3 11 4 6 3 5 6 4 6 22 27 16 27 31 37 35 42 46 53 53 42 46 50 44 47 52 67 79 60 45 39 35 26
32 31 27 52 55 29 12 14 10 6 16 17 22 16 8 8 9 8 6 7 5 3 5 3 6 8 5 7 19 20 25 30 32 35 33 34 45 44 47 49 40 43 45 48 33 51 55 62 56 53 46 42 39 36
28 26 28 56 50 11 11 8 16 4 9 9 19 21 16 14 16 18 17 18 19 19 8 5 14 28 26 18 12 17 21 26 25 29 35 46 42 42 41 32 39 35 44 35 31 43 57 71 59 57 45 39 45 52
22 29 40 57 23 10 8 9 13 13 8 9 16 21 19 17 23 22 26 29 25 21 17 29 33 32 27 10 13 18 20 21 22 27 35 38 39 35 30 39 35 30 42 34 34 41 45 69 79 70 65 57 55 53
18 39 48 32 5 9 8 14 8 6 9 14 16 23 10 16 22 29 35 29 23 27 34 34 19 11 4 12 15 14 20 28 22 17 21 26 29 37 40 26 26 39 35 35 36 36 36 52 54 65 77 79 81 88
41 43 17 8 4 5 5 9 8 8 6 7 9 7 8 9 12 23 8 16 24 4 10 7 2 5 13 16 18 10 4 12 22 19 16 23 26 34 28 29 35 32 32 36 32 41 44 40 45 54 53 58 62 69
37 9 8 10 6 5 4 7 8 7 7 5 5 7 6 6 6 4 4 3 6 11 8 4 2 5 7 9 2 4 13 15 9 12 17 18 33 22 23 32 33 31 34 37 40 38 37 40 42 53 66 68 70 68
10 7 10 9 12 10 6 7 10 9 5 8 4 4 3 8 5 5 7 9 17 12 8 12 11 7 12 8 8 4 8 10 10 11 12 18 32 17 33 29 38 39 38 38 38 43 50 59 64 62 58 58 67 70
4 10 16 14 16 8 9 10 14 15 8 9 6 5 4 4 4 5 4 19 17 20 20 14 11 14 13 5 3 5 11 15 8 10 5 20 21 23 22 26 30 31 32 34 35 40 40 41 42 45 50 51 50 46
6 11 14 18 13 16 10 10 17 12 6 8 6 10 5 5 7 5 8 16 18 13 13 12 10 9 12 4 1 3 5 12 16 1 2 16 17 22 23 19 18 22 22 19 26 30 31 33 37 41 41 39 44 50
11 4 14 22 14 11 4 9 8 8 6 8 13 8 6 4 5 2 11 17 14 14 13 13 15 11 8 5 2 5 3 5 7 4 5 22 25 22 21 25 27 26 23 29 24 25 27 29 36 39 39 40 44 44
9 9 10 20 10 6 8 8 7 8 10 12 5 3 4 3 6 17 21 11 15 9 8 9 12 8 10 8 5 4 5 4 11 6 21 39 34 25 23 32 34 35 34 32 28 25 25 26 31 29 30 31 33 32
4 12 8 15 11 7 8 14 13 15 20 15 10 8 10 13 16 8 12 11 13 11 15 12 5 16 8 8 5 9 12 19 28 27 17 14 14 13 16 17 19 17 20 29 22 25 26 29 27 31 35 32 29 29
4 15 6 7 8 22 22 13 16 12 12 14 15 19 19 12 17 19 18 16 16 13 15 9 8 16 18 13 5 14 21 31 30 17 7 10 6 16 15 14 21 23 21 23 21 22 22 21 23 18 22 30 27 23
12 13 8 8 8 8 6 4 14 12 12 15 25 30 29 22 15 11 11 22 18 13 10 8 17 18 12 9 10 6 28 37 23 6 10 9 17 17 14 14 19 24 26 24 22 26 22 23 22 18 24 19 18 27
15 11 12 6 4 3 9 11 8 7 13 15 18 20 16 13 5 8 9 7 12 14 16 11 5 8 11 13 11 23 51 48 16 13 20 20 18 22 31 27 23 19 16 19 18 19 21 20 17 15 18 22 14 16
Wind_Direction_500mb
271 276 283 293 302 308 317 323 332 340 348 354 360 5 13 16 29 56 52 359 13 336 37 32 22 21 6 20 11 345 333 357 338 356 319 340 350 2 2 350 334 292 282 282 273 293 303 41 53 76 231 308 328 321
266 270 280 289 296 292 302 312 323 332 339 347 354 1 10 15 22 20 353 14 19 296 270 357 317 271 189 13 347 338 324 343 45 15 15 347 341 332 355 306 339 334 117 215 135 257 55 35 48 23 4 353 334 334
263 264 271 281 294 287 285 299 310 322 333 338 345 354 358 2 8 19 33 18 4 325 305 238 177 97 88 34 342 331 21 6 19 23 332 294 316 335 288 276 324 358 35 41 20 9 4 350 15 360 350 334 317 306
261 262 262 267 285 293 277 287 299 311 323 327 334 347 354 351 349 356 50 36 2 320 279 121 92 107 228 336 323 317 328 330 315 314 288 260 264 270 265 278 352 32 13 351 272 2 349 326 328 320 314 304 296 293
256 254 258 259 269 289 280 279 289 302 315 317 319 336 349 359 9 45 96 49 10 34 322 290 313 144 51 189 12 333 320 322 316 300 268 265 278 342 330 341 20 26 43 355 288 325 305 296 300 303 303 299 302 301
253 252 247 255 257 275 276 272 279 292 311 311 302 325 336 349 6 94 113 247 313 349 326 304 104 179 227 244 265 264 259 280 261 272 292 287 351 14 318 324 157 67 9 341 300 304 303 299 300 301 301 300 296 290
250 249 245 243 249 259 271 271 271 282 301 306 306 307 321 334 340 189 228 340 345 348 4 294 187 182 209 229 238 238 215 229 223 272 311 331 1 8 274 268 280 355 325 318 311 322 316 313 306 306 304 303 294 291
254 256 250 243 239 248 256 260 262 272 292 301 294 306 311 315 12 30 111 334 336 224 261 279 250 141 199 284 248 214 189 347 330 266 305 357 333 250 272 275 140 284 305 308 314 297 293 294 302 314 314 302 298 293
255 254 251 230 231 244 241 248 251 261 284 286 291 318 12 87 7 251 307 318 308 173 312 284 305 138 154 326 321 84 56 316 39 250 269 42 256 235 269 267 251 282 305 299 301 298 295 299 303 312 309 305 292 297
250 247 240 231 229 232 225 238 239 242 260 255 317 65 82 226 305 316 337 322 1 212 244 257 301 12 40 21 20 1 47 356 348 339 19 234 248 259 269 271 286 300 308 308 303 307 310 304 305 306 310 306 300 299
247 242 236 227 221 215 214 222 219 205 162 123 19 272 307 322 299 265 246 212 195 200 212 240 58 17 54 49 342 16 39 319 288 51 281 258 127 3 353 325 315 313 318 315 315 313 316 311 302 305 307 300 296 295
246 238 230 217 207 202 208 206 204 179 152 175 210 268 304 272 247 257 225 225 224 216 185 104 89 62 64 44 351 27 17 324 261 31 254 272 98 340 326 321 321 315 317 318 317 320 324 315 316 305 302 303 305 306
243 234 220 209 199 195 200 197 193 188 177 168 234 242 207 222 34 222 211 202 191 155 161 158 160 178 118 122 148 330 254 247 27 240 267 333 276 339 339 326 321 328 329 331 327 327 333 327 323 320 313 311 313 306
249 230 217 194 192 193 189 186 184 179 164 171 210 312 208 206 232 214 239 110 136 163 179 179 171 190 117 153 148 255 259 295 271 239 240 256 342 338 330 331 333 340 340 339 338 333 335 342 341 333 329 322 314 307
236 229 200 191 183 193 180 179 180 174 160 237 221 231 220 250 289 269 103 125 145 59 107 141 14 111 125 127 148 347 260 225 203 265 286 308 338 336 337 339 339 338 335 339 341 336 340 337 333 336 328 316 323 308
226 199 195 181 188 179 175 175 174 173 208 240 239 261 272 302 343 19 157 110 96 136 88 52 352 103 196 155 197 237 276 259 205 223 311 348 339 341 340 337 334 337 337 339 345 344 349 348 342 334 329 324 321 312
193 187 182 190 180 170 167 168 167 194 222 241 237 239 266 290 342 98 5 76 142 356 102 79 253 216 178 190 216 229 274 314 323 325 341 348 339 338 338 335 338 343 340 341 344 348 349 353 355 353 347 350 342 341
182 173 181 187 165 164 166 157 180 194 243 252 271 263 224 165 274 160 26 55 201 99 140 204 298 269 219 273 267 250 235 286 23 4 352 344 344 345 340 336 341 344 342 348 352 353 1 360 4 8 6 10 22 33
153 176 186 172 166 155 148 181 176 202 242 268 267 261 204 224 243 250 263 276 282 280 320 261 255 243 233 274 37 24 14 10 358 343 339 336 337 341 332 332 351 351 358 357 353 6 15 15 20 21 16 11 20 26
161 179 192 177 165 143 157 171 180 239 267 246 258 270 217 240 248 246 241 249 248 230 207 243 269 287 302 345 38 14 351 332 337 334 336 326 338 333 334 343 351 346 352 5 18 23 28 30 29 33 36 44 51 50
161 171 177 175 175 135 153 180 186 214 240 258 256 259 252 234 233 242 253 255 229 220 229 232 242 258 277 338 350 340 344 341 333 322 319 319 334 344 343 354 354 4 7 18 33 37 43 45 44 46 56 57 56 54
155 175 171 170 126 152 196 201 220 230 225 234 237 221 239 237 236 243 246 243 228 234 244 255 269 258 92 17 336 313 299 300 305 325 341 344 347 353 354 13 6 9 24 38 44 50 56 51 47 54 64 68 68 68
157 162 132 102 168 194 202 209 236 215 238 202 195 194 218 218 238 230 227 225 233 182 151 159 141 314 305 318 320 323 10 349 324 321 352 356 351 3 31 29 11 32 42 48 60 63 58 61 55 56 60 66 68 65
152 96 116 147 186 212 209 228 224 237 229 227 219 195 222 169 149 232 231 273 176 190 185 204 227 248 281 309 221 352 32 14 10 19 357 6 15 66 40 34 39 47 57 58 55 61 67 65 68 68 65 63 65 68
118 144 158 171 193 190 230 198 207 224 213 200 238 272 130 175 211 206 208 177 214 228 227 244 256 249 189 193 343 10 15 22 4 7 9 24 21 71 34 60 73 70 69 66 59 67 64 72 68 71 71 66 64 65
131 188 185 198 183 201 212 187 197 194 202 185 213 211 196 227 232 240 236 215 224 191 191 174 161 137 152 129 23 14 4 14 9 350 67 23 40 30 71 83 78 75 71 67 69 77 78 73 71 72 74 73 78 76
212 195 207 225 213 203 220 189 188 168 181 198 192 168 182 228 232 203 197 169 164 163 186 162 161 157 160 110 321 312 334 336 343 164 132 52 66 59 75 79 71 72 78 74 78 81 84 88 83 77 78 80 74 76
244 240 183 193 211 214 256 180 174 162 191 194 144 183 210 317 46 11 158 120 166 168 171 184 192 205 271 203 326 72 87 341 350 129 25 115 102 89 74 76 78 67 71 99 88 89 88 88 92 94 88 79 70 70
216 193 178 174 184 194 223 213 172 188 192 185 205 158 132 121 153 139 161 209 156 179 179 173 176 165 148 126 43 350 222 247 165 138 97 126 114 104 94 101 102 99 97 99 103 96 84 82 95 86 78 80 71 68
185 167 185 186 178 209 219 201 209 197 201 198 198 142 187 207 202 176 157 175 190 162 181 206 168 174 188 183 158 87 121 139 138 130 99 59 3 154 170 153 138 110 104 88 90 97 107 97 85 87 84 86 82 85
199 175 183 183 210 240 246 219 210 209 191 198 209 213 217 206 211 208 209 205 207 206 210 220 264 180 175 186 202 156 166 170 159 161 333 355 112 131 130 122 124 115 100 101 91 89 85 88 87 75 67 85 77 74
191 204 221 226 231 248 285 199 203 221 231 211 212 211 221 216 227 186 244 211 196 205 203 211 158 144 142 168 176 150 176 178 182 29 34 69 110 135 153 156 138 121 111 93 90 104 94 75 74 91 91 92 82 77
209 220 214 260 251 206 202 180 201 218 215 222 227 233 256 267 174 154 161 152 159 134 127 111 125 164 217 238 252 186 170 167 163 101 80 70 76 83 95 103 108 104 97 92 93 93 84 81 79 89 91 78 115 93
Wind_Speed_850mb
32 28 29 31 33 32 30 27 27 28 30 30 24 21 23 26 22 18 21 34 23 9 16 16 16 17 21 25 8 29 15 13 11 6 4 6 6 7 9 12 11 6 4 7 6 7 5 14 15 9 10 15 28 34
37 35 33 35 38 32 28 26 24 24 25 25 22 19 20 24 23 17 12 16 17 10 9 11 8 8 2 8 16 20 16 12 13 7 9 8 7 7 12 7 14 7 3 4 2 2 21 38 26 24 25 27 33 39
39 36 34 32 35 30 25 23 22 21 22 20 18 18 18 20 21 18 21 38 31 9 27 16 13 5 4 5 4 8 11 15 11 13 7 5 4 5 6 9 9 6 29 7 11 15 33 38 35 39 39 37 43 54
39 37 33 33 32 29 23 21 21 21 19 17 14 16 16 18 19 16 12 24 27 8 9 10 3 6 5 3 6 6 10 9 13 13 14 5 6 16 8 9 6 4 11 9 8 11 38 10 51 52 57 59 61 61
39 37 36 34 30 28 23 20 20 20 18 15 14 15 15 19 17 12 16 14 20 13 9 13 8 5 8 3 5 6 7 9 12 13 7 7 20 9 11 6 7 14 5 4 6 26 22 46 61 64 58 58 52 51
43 39 41 36 32 27 24 19 20 18 18 14 12 15 14 15 12 5 9 9 14 28 4 6 6 9 6 8 6 7 6 9 11 9 17 16 8 9 5 4 4 5 8 16 16 41 50 58 62 55 53 60 70 66
39 45 45 45 35 29 26 21 19 17 14 14 12 12 13 14 13 1 1 4 24 11 3 10 5 12 11 13 18 18 23 12 14 9 7 14 9 15 4 8 12 7 23 29 42 37 44 53 62 76 69 73 64 67
37 38 40 39 38 33 28 23 19 16 13 12 12 10 12 15 2 5 4 12 29 2 5 6 4 13 10 11 13 22 3 5 9 2 6 6 14 4 6 1 2 12 26 43 44 45 54 63 72 72 65 59 63 67
35 33 31 36 36 32 28 23 18 14 11 9 9 9 6 5 4 8 17 27 6 7 7 8 5 4 4 10 10 6 5 3 0 4 5 3 4 7 9 12 15 20 29 49 63 61 66 64 67 67 65 63 63 65
31 30 30 32 38 32 27 22 16 10 7 4 1 7 2 5 7 22 3 3 2 5 6 10 14 3 11 18 9 9 5 4 5 4 6 3 8 37 40 25 25 40 59 64 58 60 65 71 83 81 69 66 71 71
29 29 30 29 31 34 29 22 16 9 8 7 5 1 6 18 5 3 7 12 14 11 13 10 7 5 9 8 5 11 4 5 4 1 2 5 0 11 16 23 32 43 48 57 61 60 65 60 74 78 76 73 68 71
23 27 29 30 31 34 30 24 19 20 12 10 5 5 3 5 6 8 6 8 7 6 9 4 13 10 6 8 6 7 3 3 6 2 4 5 2 12 21 30 38 49 57 59 65 66 70 62 59 65 72 73 71 61
22 25 29 30 34 36 30 26 20 22 15 7 3 4 6 7 4 8 9 6 6 17 12 14 12 4 5 4 1 1 5 5 1 3 5 1 8 23 29 39 50 54 65 69 67 62 58 63 68 68 63 57 56 51
21 23 28 36 38 33 33 28 23 24 14 5 9 6 7 9 9 10 10 6 11 18 22 22 20 12 7 6 4 3 5 4 4 5 5 4 12 24 38 45 50 70 66 62 60 56 60 58 69 69 60 49 48 52
20 20 32 37 43 34 36 31 26 33 10 7 9 6 13 25 31 3 14 8 4 10 9 3 6 11 4 4 2 3 5 7 5 5 4 34 15 35 47 54 60 66 56 58 59 59 55 65 73 82 68 46 40 38
15 25 37 42 35 40 38 32 29 25 5 7 10 9 20 15 12 21 14 16 12 7 16 11 4 2 2 5 5 6 4 6 3 6 15 15 27 47 53 54 60 66 54 56 54 52 60 70 74 65 56 44 37 30
21 20 35 35 39 43 38 30 24 13 8 8 14 26 33 21 17 13 11 14 6 7 5 2 3 4 2 3 4 5 5 8 36 19 20 28 41 47 42 53 62 55 51 50 52 42 61 70 67 55 49 45 36 27
25 25 30 32 47 46 40 17 14 9 8 16 15 19 6 2 8 2 10 4 1 3 11 4 6 3 5 6 4 6 22 27 16 27 31 37 35 42 46 53 53 42 46 50 44 47 52 67 79 60 45 39 35 26
32 31 27 52 55 29 12 14 10 6 16 17 22 16 8 8 9 8 6 7 5 3 5 3 6 8 5 7 19 20 25 30 32 35 33 34 45 44 47 49 40 43 45 48 33 51 55 62 56 53 46 42 39 36
28 26 28 56 50 11 11 8 16 4 9 9 19 21 16 14 16 18 17 18 19 19 8 5 14 28 26 18 12 17 21 26 25 29 35 46 42 42 41 32 39 35 44 35 31 43 57 71 59 57 45 39 45 52
22 29 40 57 23 10 8 9 13 13 8 9 16 21 19 17 23 22 26 29 25 21 17 29 33 32 27 10 13 18 20 21 22 27 35 38 39 35 30 39 35 30 42 34 34 41 45 69 79 70 65 57 55 53
18 39 48 32 5 9 8 14 8 6 9 14 16 23 10 16 22 29 35 29 23 27 34 34 19 11 4 12 15 14 20 28 22 17 21 26 29 37 40 26 26 39 35 35 36 36 36 52 54 65 77 79 81 88
41 43 17 8 4 5 5 9 8 8 6 7 9 7 8 9 12 23 8 16 24 4 10 7 2 5 13 16 18 10 4 12 22 19 16 23 26 34 28 29 35 32 32 36 32 41 44 40 45 54 53 58 62 69
37 9 8 10 6 5 4 7 8 7 7 5 5 7 6 6 6 4 4 3 6 11 8 4 2 5 7 9 2 4 13 15 9 12 17 18 33 22 23 32 33 31 34 37 40 38 37 40 42 53 66 68 70 68
10 7 10 9 12 10 6 7 10 9 5 8 4 4 3 8 5 5 7 9 17 12 8 12 11 7 12 8 8 4 8 10 10 11 12 18 32 17 33 29 38 39 38 38 38 43 50 59 64 62 58 58 67 70
4 10 16 14 16 8 9 10 14 15 8 9 6 5 4 4 4 5 4 19 17 20 20 14 11 14 13 5 3 5 11 15 8 10 5 20 21 23 22 26 30 31 32 34 35 40 40 41 42 45 50 51 50 46
6 11 14 18 13 16 10 10 17 12 6 8 6 10 5 5 7 5 8 16 18 13 13 12 10 9 12 4 1 3 5 12 16 1 2 16 17 22 23 19 18 22 22 19 26 30 31 33 37 41 41 39 44 50
11 4 14 22 14 11 4 9 8 8 6 8 13 8 6 4 5 2 11 17 14 14 13 13 15 11 8 5 2 5 3 5 7 4 5 22 25 22 21 25 27 26 23 29 24 25 27 29 36 39 39 40 44 44
9 9 10 20 10 6 8 8 7 8 10 12 5 3 4 3 6 17 21 11 15 9 8 9 12 8 10 8 5 4 5 4 11 6 21 39 34 25 23 32 34 35 34 32 28 25 25 26 31 29 30 31 33 32
4 12 8 15 11 7 8 14 13 15 20 15 10 8 10 13 16 8 12 11 13 11 15 12 5 16 8 8 5 9 12 19 28 27 17 14 14 13 16 17 19 17 20 29 22 25 26 29 27 31 35 32 29 29
4 15 6 7 8 22 22 13 16 12 12 14 15 19 19 12 17 19 18 16 16 13 15 9 8 16 18 13 5 14 21 31 30 17 7 10 6 16 15 14 21 23 21 23 21 22 22 21 23 18 22 30 27 23
12 13 8 8 8 8 6 4 14 12 12 15 25 30 29 22 15 11 11 22 18 13 10 8 17 18 12 9 10 6 28 37 23 6 10 9 17 17 14 14 19 24 26 24 22 26 22 23 22 18 24 19 18 27
15 11 12 6 4 3 9 11 8 7 13 15 18 20 16 13 5 8 9 7 12 14 16 11 5 8 11 13 11 23 51 48 16 13 20 20 18 22 31 27 23 19 16 19 18 19 21 20 17 15 18 22 14 16
Wind_Direction_850mb
271 276 283 293 302 308 317 323 332 340 348 354 360 5 13 16 29 56 52 359 13 336 37 32 22 21 6 20 11 345 333 357 338 356 319 340 350 2 2 350 334 292 282 282 273 293 303 41 53 76 231 308 328 321
266 270 280 289 296 292 302 312 323 332 339 347 354 1 10 15 22 20 353 14 19 296 270 357 317 271 189 13 347 338 324 343 45 15 15 347 341 332 355 306 339 334 117 215 135 257 55 35 48 23 4 353 334 334
263 264 271 281 294 287 285 299 310 322 333 338 345 354 358 2 8 19 33 18 4 325 305 238 177 97 88 34 342 331 21 6 19 23 332 294 316 335 288 276 324 358 35 41 20 9 4 350 15 360 350 334 317 306
261 262 262 267 285 293 277 287 299 311 323 327 334 347 354 351 349 356 50 36 2 320 279 121 92 107 228 336 323 317 328 330 315 314 288 260 264 270 265 278 352 32 13 351 272 2 349 326 328 320 314 304 296 293
256 254 258 259 269 289 280 279 289 302 315 317 319 336 349 359 9 45 96 49 10 34 322 290 313 144 51 189 12 333 320 322 316 300 268 265 278 342 330 341 20 26 43 355 288 325 305 296 300 303 303 299 302 301
253 252 247 255 257 275 276 272 279 292 311 311 302 325 336 349 6 94 113 247 313 349 326 304 104 179 227 244 265 264 259 280 261 272 292 287 351 14 318 324 157 67 9 341 300 304 303 299 300 301 301 300 296 290
250 249 245 243 249 259 271 271 271 282 301 306 306 307 321 334 340 189 228 340 345 348 4 294 187 182 209 229 238 238 215 229 223 272 311 331 1 8 274 268 280 355 325 318 311 322 316 313 306 306 304 303 294 291
254 256 250 243 239 248 256 260 262 272 292 301 294 306 311 315 12 30 111 334 336 224 261 279 250 141 199 284 248 214 189 347 330 266 305 357 333 250 272 275 140 284 305 308 314 297 293 294 302 314 314 302 298 293
255 254 251 230 231 244 241 248 251 261 284 286 291 318 12 87 7 251 307 318 308 173 312 284 305 138 154 326 321 84 56 316 39 250 269 42 256 235 269 267 251 282 305 299 301 298 295 299 303 312 309 305 292 297
250 247 240 231 229 232 225 238 239 242 260 255 317 65 82 226 305 316 337 322 1 212 244 257 301 12 40 21 20 1 47 356 348 339 19 234 248 259 269 271 286 300 308 308 303 307 310 304 305 306 310 306 300 299
247 242 236 227 221 215 214 222 219 205 162 123 19 272 307 322 299 265 246 212 195 200 212 240 58 17 54 49 342 16 39 319 288 51 281 258 127 3 353 325 315 313 318 315 315 313 316 311 302 305 307 300 296 295
246 238 230 217 207 202 208 206 204 179 152 175 210 268 304 272 247 257 225 225 224 216 185 104 89 62 64 44 351 27 17 324 261 31 254 272 98 340 326 321 321 315 317 318 317 320 324 315 316 305 302 303 305 306
243 234 220 209 199 195 200 197 193 188 177 168 234 242 207 222 34 222 211 202 191 155 161 158 160 178 118 122 148 330 254 247 27 240 267 333 276 339 339 326 321 328 329 331 327 327 333 327 323 320 313 311 313 306
249 230 217 194 192 193 189 186 184 179 164 171 210 312 208 206 232 214 239 110 136 163 179 179 171 190 117 153 148 255 259 295 271 239 240 256 342 338 330 331 333 340 340 339 338 333 335 342 341 333 329 322 314 307
236 229 200 191 183 193 180 179 180 174 160 237 221 231 220 250 289 269 103 125 145 59 107 141 14 111 125 127 148 347 260 225 203 265 286 308 338 336 337 339 339 338 335 339 341 336 340 337 333 336 328 316 323 308
226 199 195 181 188 179 175 175 174 173 208 240 239 261 272 302 343 19 157 110 96 136 88 52 352 103 196 155 197 237 276 259 205 223 311 348 339 341 340 337 334 337 337 339 345 344 349 348 342 334 329 324 321 312
193 187 182 190 180 170 167 168 167 194 222 241 237 239 266 290 342 98 5 76 142 356 102 79 253 216 178 190 216 229 274 314 323 325 341 348 339 338 338 335 338 343 340 341 344 348 349 353 355 353 347 350 342 341
182 173 181 187 165 164 166 157 180 194 243 252 271 263 224 165 274 160 26 55 201 99 140 204 298 269 219 273 267 250 235 286 23 4 352 344 344 345 340 336 341 344 342 348 352 353 1 360 4 8 6 10 22 33
153 176 186 172 166 155 148 181 176 202 242 268 267 261 204 224 243 250 263 276 282 280 320 261 255 243 233 274 37 24 14 10 358 343 339 336 337 341 332 332 351 351 358 357 353 6 15 15 20 21 16 11 20 26
161 179 192 177 165 143 157 171 180 239 267 246 258 270 217 240 248 246 241 249 248 230 207 243 269 287 302 345 38 14 351 332 337 334 336 326 338 333 334 343 351 346 352 5 18 23 28 30 29 33 36 44 51 50
161 171 177 175 175 135 153 180 186 214 240 258 256 259 252 234 233 242 253 255 229 220 229 232 242 258 277 338 350 340 344 341 333 322 319 319 334 344 343 354 354 4 7 18 33 37 43 45 44 46 56 57 56 54
155 175 171 170 126 152 196 201 220 230 225 234 237 221 239 237 236 243 246 243 228 234 244 255 269 258 92 17 336 313 299 300 305 325 341 344 347 353 354 13 6 9 24 38 44 50 56 51 47 54 64 68 68 68
157 162 132 102 168 194 202 209 236 215 238 202 195 194 218 218 238 230 227 225 233 182 151 159 141 314 305 318 320 323 10 349 324 321 352 356 351 3 31 29 11 32 42 48 60 63 58 61 55 56 60 66 68 65
152 96 116 147 186 212 209 228 224 237 229 227 219 195 222 169 149 232 231 273 176 190 185 204 227 248 281 309 221 352 32 14 10 19 357 6 15 66 40 34 39 47 57 58 55 61 67 65 68 68 65 63 65 68
118 144 158 171 193 190 230 198 207 224 213 200 238 272 130 175 211 206 208 177 214 228 227 244 256 249 189 193 343 10 15 22 4 7 9 24 21 71 34 60 73 70 69 66 59 67 64 72 68 71 71 66 64 65
131 188 185 198 183 201 212 187 197 194 202 185 213 211 196 227 232 240 236 215 224 191 191 174 161 137 152 129 23 14 4 14 9 350 67 23 40 30 71 83 78 75 71 67 69 77 78 73 71 72 74 73 78 76
212 195 207 225 213 203 220 189 188 168 181 198 192 168 182 228 232 203 197 169 164 163 186 162 161 157 160 110 321 312 334 336 343 164 132 52 66 59 75 79 71 72 78 74 78 81 84 88 83 77 78 80 74 76
244 240 183 193 211 214 256 180 174 162 191 194 144 183 210 317 46 11 158 120 166 168 171 184 192 205 271 203 326 72 87 341 350 129 25 115 102 89 74 76 78 67 71 99 88 89 88 88 92 94 88 79 70 70
216 193 178 174 184 194 223 213 172 188 192 185 205 158 132 121 153 139 161 209 156 179 179 173 176 165 148 126 43 350 222 247 165 138 97 126 114 104 94 101 102 99 97 99 103 96 84 82 95 86 78 80 71 68
185 167 185 186 178 209 219 201 209 197 201 198 198 142 187 207 202 176 157 175 190 162 181 206 168 174 188 183 158 87 121 139 138 130 99 59 3 154 170 153 138 110 104 88 90 97 107 97 85 87 84 86 82 85
199 175 183 183 210 240 246 219 210 209 191 198 209 213 217 206 211 208 209 205 207 206 210 220 264 180 175 186 202 156 166 170 159 161 333 355 112 131 130 122 124 115 100 101 91 89 85 88 87 75 67 85 77 74
191 204 221 226 231 248 285 199 203 221 231 211 212 211 221 216 227 186 244 211 196 205 203 211 158 144 142 168 176 150 176 178 182 29 34 69 110 135 153 156 138 121 111 93 90 104 94 75 74 91 91 92 82 77
209 220 214 260 251 206 202 180 201 218 215 222 227 233 256 267 174 154 161 152 159 134 127 111 125 164 217 238 252 186 170 167 163 101 80 70 76 83 95 103 108 104 97 92 93 93 84 81 79 89 91 78 115 93